This is the latest recevied weather packets stored in our database for station/object WA1NHP. If no packets are shown the sender has not sent any weather packets the latest 10 day(s).
| Time | Temp. | Humidity | Pressure | Rain* | Wind** | Luminosity | Snow |
|---|---|---|---|---|---|---|---|
| 1777653244 | 11.67° C | 48% | 1023.9 hPa | 0 mm | - | 185 W/m² | - |
| 1777652643 | 12.22° C | 53% | 1023.9 hPa | 0 mm | - | 1146 W/m² | - |
| 1777652044 | 12.78° C | 57% | 1023.9 hPa | 0 mm | - | 1097 W/m² | - |
| 1777651444 | 12.22° C | 52% | 1023.9 hPa | 0 mm | - | 1144 W/m² | - |
| 1777650844 | 11.11° C | 57% | 1023.9 hPa | 0 mm | - | 1144 W/m² | - |
| 1777650244 | 11.11° C | 59% | 1023.9 hPa | 0 mm | - | 1160 W/m² | - |
| 1777649644 | 11.67° C | 58% | 1023.9 hPa | 0 mm | - | 1174 W/m² | - |
| 1777649044 | 11.11° C | 56% | 1023.9 hPa | 0 mm | - | 188 W/m² | - |
| 1777648444 | 11.11° C | 59% | 1023.9 hPa | 0 mm | - | 1158 W/m² | - |
| 1777647844 | 11.11° C | 60% | 1023.9 hPa | 0 mm | - | 1013 W/m² | - |
| 1777647244 | 10.56° C | 59% | 1023.9 hPa | 0 mm | - | 1028 W/m² | - |
| 1777646644 | 10.56° C | 62% | 1023.9 hPa | 0 mm | - | 1072 W/m² | - |
| 1777646044 | 10° C | 60% | 1023.9 hPa | 0 mm | - | 909 W/m² | - |
| 1777645443 | 9.44° C | 63% | 1023.9 hPa | 0 mm | - | 963 W/m² | - |
| 1777644844 | 8.89° C | 63% | 1023.9 hPa | 0 mm | - | 907 W/m² | - |
| 1777643644 | 7.78° C | 68% | 1023.9 hPa | 0 mm | - | 193 W/m² | - |
| 1777643044 | 7.22° C | 70% | 1023.9 hPa | 0 mm | - | 204 W/m² | - |
| 1777642444 | 7.22° C | 71% | 1023.9 hPa | 0 mm | - | 188 W/m² | - |
| 1777641844 | 7.22° C | 70% | 1023.9 hPa | 0 mm | - | 149 W/m² | - |
| 1777641244 | 7.22° C | 71% | 1023.9 hPa | 0 mm | - | 174 W/m² | - |
| 1777640644 | 7.78° C | 75% | 1023.9 hPa | 0 mm | - | 285 W/m² | - |
| 1777640044 | 7.22° C | 72% | 1023.9 hPa | 0 mm | - | 357 W/m² | - |
| 1777639444 | 6.67° C | 75% | 1023.9 hPa | 0 mm | - | 165 W/m² | - |
| 1777638845 | 6.67° C | 77% | 1023.9 hPa | 0 mm | - | 336 W/m² | - |
| 1777638243 | 6.11° C | 79% | 1023.9 hPa | 0 mm | - | 267 W/m² | - |
* Rain latest hour (hover to see other rain measurements)
** Current wind speed in m/s (hover to see current wind gust speed)